Overview Statistics Trail Chart Weather Telemetry Raw packets
 

This is the latest recevied weather packets stored in our database for station/object K2CAT. If no packets are shown the sender has not sent any weather packets the latest 10 day(s).

<< 66 67 68 69 70 71 72 >>
Time Temp. Humidity Pressure Rain* Wind** Luminosity Snow
1777249789 12.22° C 72% 1020 hPa 0 mm - 0 W/m² -
1777249489 12.22° C 70% 1019.7 hPa 0 mm - 0 W/m² -
1777249186 12.78° C 69% 1019.7 hPa 0 mm - 0 W/m² -
1777248883 12.78° C 68% 1019.7 hPa 0 mm - 0 W/m² -
1777248580 13.33° C 67% 1019.7 hPa 0 mm - 0 W/m² -
1777248276 13.33° C 66% 1019.6 hPa 0 mm - 0 W/m² -
1777247971 13.89° C 65% 1019.6 hPa 0 mm - 1 W/m² -
1777247666 13.89° C 64% 1019.6 hPa 0 mm - 1 W/m² -
1777247364 14.44° C 62% 1019.5 hPa 0 mm - 3 W/m² -
1777247062 14.44° C 61% 1019.3 hPa 0 mm - 4 W/m² -
1777246759 15° C 57% 1019.3 hPa 0 mm - 6 W/m² -
1777246454 15° C 56% 1019.3 hPa 0 mm - 9 W/m² -
1777246151 15.56° C 56% 1019.3 hPa 0 mm - 11 W/m² -
1777245849 15.56° C 57% 1019.3 hPa 0 mm - 14 W/m² -
1777245547 15.56° C 59% 1019 hPa 0 mm - 16 W/m² -
1777245243 16.11° C 53% 1019 hPa 0 mm - 19 W/m² -
1777244938 16.67° C 52% 1018.9 hPa 0 mm - 21 W/m² -
1777244634 16.67° C 53% 1019 hPa 0 mm - 24 W/m² -
1777244330 17.22° C 50% 1018.9 hPa 0 mm - 26 W/m² -
1777244028 17.22° C 49% 1019 hPa 0 mm - 28 W/m² -
1777243725 17.78° C 49% 1019 hPa 0 mm - 31 W/m² -
1777243422 18.33° C 44% 1019 hPa 0 mm - 34 W/m² -
1777243118 18.33° C 46% 1019.2 hPa 0 mm - 36 W/m² -
1777242815 18.33° C 45% 1019.1 hPa 0 mm - 38 W/m² -
1777242511 18.33° C 43% 1019 hPa 0 mm - 40 W/m² -

* Rain latest hour (hover to see other rain measurements)
** Current wind speed in m/s (hover to see current wind gust speed)